Satellite: AO-27
Catalog number: 22825
Epoch time:      06151.99450341
Element set:     413
Inclination:      098.2809 deg
RA of node:       134.6197 deg
Eccentricity:    0.0007990
Arg of perigee:   316.5880 deg
Mean anomaly:     043.4662 deg
Mean motion:   14.29173931 rev/day
Decay rate:        1.8e-07 rev/day^2
Epoch rev:           66104
Checksum:              309

Satellite: IO-26
Catalog number: 22826
Epoch time:      06152.45705691
Element set:     103
Inclination:      098.2769 deg
RA of node:       136.2711 deg
Eccentricity:    0.0008381
Arg of perigee:   311.8986 deg
Mean anomaly:     048.1485 deg
Mean motion:   14.29417530 rev/day
Decay rate:        1.0e-08 rev/day^2
Epoch rev:           66118
Checksum:              302

Satellite: PO-28
Catalog number: 22829
Epoch time:      06151.89878766
Element set:     386
Inclination:      098.2667 deg
RA of node:       136.9434 deg
Eccentricity:    0.0008917
Arg of perigee:   286.3521 deg
Mean anomaly:     073.6680 deg
Mean motion:   14.30111046 rev/day
Decay rate:       1.11e-06 rev/day^2
Epoch rev:           66131
Checksum:              323

Satellite: TO-31
Catalog number: 25396
Epoch time:      06151.78796189
Element set:     540
Inclination:      098.4785 deg
RA of node:       212.6889 deg
Eccentricity:    0.0001716
Arg of perigee:   238.8429 deg
Mean anomaly:     121.2591 deg
Mean motion:   14.23705415 rev/day
Decay rate:        9.0e-08 rev/day^2
Epoch rev:           41001
Checksum:              314

Satellite: GO-32
Catalog number: 25397
Epoch time:      06151.73719654
Element set:      26
Inclination:      098.4670 deg
RA of node:       209.4268 deg
Eccentricity:    0.0000337
Arg of perigee:   265.2240 deg
Mean anomaly:     094.8900 deg
Mean motion:   14.23105060 rev/day
Decay rate:       -7.1e-07 rev/day^2
Epoch rev:           40990
Checksum:              287

Satellite: UO-36
Catalog number: 25693
Epoch time:      06151.87247013
Element set:      54
Inclination:      064.5583 deg
RA of node:       292.8185 deg
Eccentricity:    0.0016461
Arg of perigee:   332.8154 deg
Mean anomaly:     027.2092 deg
Mean motion:   14.78598727 rev/day
Decay rate:       -5.0e-08 rev/day^2
Epoch rev:           38337
Checksum:              320

Satellite: MO-46
Catalog number: 26548
Epoch time:      06151.85786485
Element set:     506
Inclination:      064.5573 deg
RA of node:       282.2423 deg
Eccentricity:    0.0049489
Arg of perigee:   249.6919 deg
Mean anomaly:     109.8873 deg
Mean motion:   14.82974458 rev/day
Decay rate:       2.81e-06 rev/day^2
Epoch rev:           30698
Checksum:              372

Satellite: NO-44
Catalog number: 26931
Epoch time:      06152.11717187
Element set:     317
Inclination:      067.0538 deg
RA of node:       049.0731 deg
Eccentricity:    0.0007127
Arg of perigee:   258.3313 deg
Mean anomaly:     101.6978 deg
Mean motion:   14.29439962 rev/day
Decay rate:      -1.64e-06 rev/day^2
Epoch rev:           24363
Checksum:              303

Satellite: SO-50
Catalog number: 27607
Epoch time:      06151.51074890
Element set:      33
Inclination:      064.5553 deg
RA of node:       163.7057 deg
Eccentricity:    0.0044857
Arg of perigee:   153.5011 deg
Mean anomaly:     206.8403 deg
Mean motion:   14.71141802 rev/day
Decay rate:        1.4e-07 rev/day^2
Epoch rev:           18497
Checksum:              278

Satellite: CO-57
Catalog number: 27848
Epoch time:      06152.49797959
Element set:     738
Inclination:      098.7185 deg
RA of node:       160.3324 deg
Eccentricity:    0.0010736
Arg of perigee:   109.9031 deg
Mean anomaly:     250.3315 deg
Mean motion:   14.20265865 rev/day
Decay rate:        4.8e-07 rev/day^2
Epoch rev:           15141
Checksum:              322

Satellite: AO-51
Catalog number: 28375
Epoch time:      06152.10087930
Element set:     544
Inclination:      098.1651 deg
RA of node:       204.8699 deg
Eccentricity:    0.0083248
Arg of perigee:   256.7926 deg
Mean anomaly:     102.3966 deg
Mean motion:   14.40520084 rev/day
Decay rate:        3.0e-07 rev/day^2
Epoch rev:           10084
Checksum:              298

Satellite: XO-53
Catalog number: 28894
Epoch time:      06152.47536059
Element set:     562
Inclination:      098.1682 deg
RA of node:       051.0406 deg
Eccentricity:    0.0016768
Arg of perigee:   220.5243 deg
Mean anomaly:     139.4694 deg
Mean motion:   14.59476255 rev/day
Decay rate:       1.75e-06 rev/day^2
Epoch rev:            3168
Checksum:              326

Satellite: CO-56
Catalog number: 28941
Epoch time:      06152.07955945
Element set:     105
Inclination:      098.1755 deg
RA of node:       169.4404 deg
Eccentricity:    0.0284536
Arg of perigee:   165.5710 deg
Mean anomaly:     195.3916 deg
Mean motion:   15.23986558 rev/day
Decay rate:     2.0818e-04 rev/day^2
Epoch rev:            1509
Checksum:              343

/EX
SB KEPS @ AMSAT  $ORB06152.W
Orbital Elements  06152.WEATHER

HR AMSAT ORBITAL ELEMENTS FOR WEATHER SATELLITES
FROM WA5QGD FORT WORTH,TX June 1, 2006
Send SUBSCRIBE KEPS/UNSUBSCRIBE KEPS to majordomo@amsat.org only
BID: ORB06152.W
TO ALL RADIO AMATEURS BT

Satellite: NOAA-10
Catalog number: 16969
Epoch time:      06152.44154392
Element set:     226
Inclination:      098.7576 deg
RA of node:       164.0428 deg
Eccentricity:    0.0012103
Arg of perigee:   192.5664 deg
Mean anomaly:     167.5229 deg
Mean motion:   14.27295153 rev/day
Decay rate:       -7.2e-07 rev/day^2
Epoch rev:            2491
Checksum:              303

